Regional Weather Roundup
Issued by NWS Newport/Morehead, NC

Current Version | Previous Version | Graphics & Text | Print | Product List | Glossary Off
Versions: 1 2 3 4 5 6 7 8 9 10 11 12 13 14 15 16 17 18 19 20 21 22 23 24 25 26 27 28 29 30 31 32 33 34 35 36 37 38 39 40 41 42 43 44 45 46 47 48 49 50

000
ASUS42 KMHX 121725
RWRMHX
WEATHER ROUNDUP FOR EASTERN NORTH CAROLINA
NATIONAL WEATHER SERVICE NEWPORT/MOREHEAD CITY NC
1200 PM EST FRI FEB 12 2016

NOTE: "FAIR" INDICATES FEW OR NO CLOUDS BELOW 12,000 FEET
WITH NO SIGNIFICANT WEATHER AND/OR OBSTRUCTIONS TO VISIBILITY

NCZ015>017-031-032-045>047-102-103-121800-
NORTH COAST

CITY           SKY/WX    TMP DP  RH WIND       PRES   REMARKS
EDENTON        PTSUNNY   35  20  55 E9        30.21F
ELIZABETH CITY CLOUDY    33  16  49 E7        30.23F
KITTY HAWK     CLOUDY    37  19  50 CALM      30.20F
MANTEO         CLOUDY    35  21  55 E9        30.21F

$$

NCZ045>047-081-094-103-104-121800-
CENTRAL COAST

CITY           SKY/WX    TMP DP  RH WIND       PRES   REMARKS
FRISCO         LGT SNOW  33  31  92 NE8       30.17F FOG
SWANQUARTER      N/A     36 N/A N/A NE9G15    30.15F

$$

NCZ095-097-098-100-101-121800-
SOUTHERN COAST

CITY           SKY/WX    TMP DP  RH WIND       PRES   REMARKS
BEAUFORT       RAIN      35  31  85 NE14G21   30.12F FOG
CEDAR ISLAND     N/A     36 N/A N/A NE20G30   30.18F
JACKSONVILLE   LGT RAIN  34  29  82 N12       30.14F
PINEY ISLAND   LGT RAIN N/A N/A N/A NE15      30.14F
WILMINGTON     LGT RAIN  35  30  82 N9        30.12F


$$

NCZ011>013-027>030-043-044-078>080-089-090>093-098-121800-
COASTAL PLAIN

CITY           SKY/WX    TMP DP  RH WIND       PRES   REMARKS
AHOSKIE        CLOUDY    30  13  49 E3        30.20F
CLINTON        MIX PCPN  32  25  77 NE7       30.16F
ELIZABETHTOWN  RAIN      32  25  74 CALM      30.15F
GOLDSBORO      LGTSLEET  32  18  55 E9        30.17F
GREENVILLE     CLOUDY    34  19  55 E8        30.19F
HAVELOCK       LGT RAIN  36  30  79 NE15G23   30.15F
KENANSVILLE    MIX PCPN  32  27  84 NE3       30.16F
KINSTON        CLOUDY    32  25  74 E9        30.18F
NEW BERN       RAIN      33  28  81 NE9       30.19F
RICHLANDS      CLOUDY    32  25  74 CALM      30.15F
ROCKY MOUNT    CLOUDY    32  14  47 VRB5      30.20F
WASHINGTON     CLOUDY    34  19  54 E10       30.18F
WHITEVILLE     CLOUDY    37  19  48 NE5       30.15S

$$

AMZ130-135-150-152-154-156-158-170-250-252-270-ANZ085-086-088-633-658-670-121800-
MARINE OBSERVATIONS

STATION/POSITION TIME  TEMP    WIND        PRES    WAVE   SWELL
                       AIR SEA DIR/SP/G            HT/PER HT/PER
                 (UTC) (F)     (DEG/KT/KT) (MB)    (FT/S) (FT/S)
CHESAPEAKE LIGHT 1700   28      60/  2/  3 1024.8
64 E VA BEACH    1650   32 50   30/  4/  6 1023.9    3/ 6   3/ 6
DUCK             1700   33      80/  6/  9 1022.8
2 E DUCK         1711      43                N/A     3/ 6
OREGON INLET     1700   35 40   70/  8/ 10 1022.4
13E OREGON INLT  1700      45                N/A     4/ 6
HATTERAS CG      1700   33 45   40/ 11/ 14 1021.4
DIAMOND BUOY     1650   46 69   90/ 10/ 14 1021.7    3/ 8   3/ 8
CAPE LOOKOUT     NOT AVBL
BEAUFORT LAB     1700   35 45   30/  9/ 13 1018.9
30 SE NEW RVR IN 1708   51 59              1017.3
30 SE NEW RVR IN 1625      59                N/A     5/ 5
27 SE WRIGHTSVLE 1708   32 62   70/ 14/ 19 1017.5
5 SE WRIGHTSVLE  1608   43 51   60/ 21/ 27 1019.5
225 S CAPE HAT   1650   65 68  220/ 29/ 33   N/A     7/ 6
41 SE CHARLESTON 1650   59 68  260/ 17/ 21 1018.2    4/ 7   2/ 7

$$



USA.gov is the U.S. government's official web portal to all federal, state and local government web resources and services.